Back to catalog

THORAD AGENA D DEB

AliveLEO
NORAD 4173·DEBRIS·🇺🇸 United States

Launched Sep 30, 1969 from Vandenberg Space Force Base

Loading…

Next Passes (next 24 hours)

TLE

FreshSource: Space-Track

Epoch: Sep 14, 2026, 02:42 UTC

1 04173U 69082AR  26257.11309587  .00003962  00000-0  46957-3 0  9990
2 04173  70.0654 142.1189 0023220 253.2699 106.5906 14.85125422986688

Track THORAD AGENA D DEB in real time with AllMySat

Download on the App Store